Search your local weather  

 

Hazardous Weather Conditions

Winter Weather Advisory issued January 19 at 3:03PM EST until January 20 at 1:00PM EST

Current Conditions: PHILADELPHIA, PENNSYLVANIA

Overcast


42.0 F

Last Updated on Jan 19 2022, 11:35 pm EST
Humidity: 58%
Wind Speed: N 0.0 mph
Barometer 29.98 in
Dewpoint: 28.2 F
Visibility: 10.00 mi
Precip: --
Heat Index: NA
Wind Chill: NA
Current conditions at:

Philadelphia - Wings Field Airport, PA (KLOM)

Lat: 40.13758 Lon: -75.2684

Local Radar Image active severe weather and emergency alerts image image weather storm and storm spotter reports image weather observation monitoring service image
Local
Radar
Active
Alerts
Storm Reports Weather
Monitoring

5 Day Forecast for PHILADELPHIA, PENNSYLVANIA (19102)

Wednesday
Night
Rain

Low 34 °F
Thursday

Snow

High 36 °F
Thursday
Night
Mostly Cloudy

Low 14 °F
Friday

Mostly Cloudy

High 26 °F
Friday
Night
Chance of Snow
Low 14 °F
Saturday

Chance of Snow
High 29 °F
Saturday
Night
Partly Cloudy

Low 17 °F
Sunday

Mostly Cloudy

High 35 °F
Sunday
Night
Mostly Cloudy

Low 19 °F

Sign-up For Email & Text Message Weather Alert Notification Services



Advertise Here

Observation History for PHILADELPHIA, PENNSYLVANIA


Time Wind
(mph)
Vis
(mi)
Weather Precip (in) Temperature (F) Relative
Humidity
Wind
Chill
(F)
Heat
Index
(F)
Pressure
Air Dwpt altimeter
(in)
sea level
(mb)
11:35 pm EST N 0.0 10.00 Overcast -- 42.0 28.2 58% NA NA 29.98 M
10:55 pm EST SW 3.5 10.00 Overcast -- 43.0 28.0 55% NA NA 29.99 M
10:35 pm EST W 4.6 10.00 Overcast -- 44.0 27.9 54% 41 NA 29.99 M
9:55 pm EST SW 8.1 10.00 Overcast -- 44.0 28.2 53% 39 NA 29.99 M
8:55 pm EST SW 8.1 10.00 Overcast -- 44.0 28.4 55% 39 NA 29.98 M
7:55 pm EST S 6.9 10.00 Overcast -- 42.0 27.9 58% 38 NA 29.98 M
6:55 pm EST S 4.6 10.00 Mostly Cloudy -- 38.0 27.0 66% 34 NA 29.98 M
5:55 pm EST N 0.0 10.00 Partly Cloudy -- 40.0 25.9 57% NA NA 29.98 M
5:35 pm EST SW 3.5 10.00 Partly Cloudy -- 43.0 25.5 51% NA NA 29.98 M
4:55 pm EST S 4.6 10.00 Fair -- 45.0 25.5 47% 43 NA 29.97 M
3:55 pm EST SW 8.1 10.00 Fair -- 49.0 25.7 41% 46 NA 29.97 M
2:55 pm EST S 9.2 10.00 Partly Cloudy -- 49.0 25.5 39% 45 NA 29.97 M
2:35 pm EST SW 11.5 10.00 Partly Cloudy -- 49.0 25.5 39% 44 NA 29.98 M
1:55 pm EST SW 11.5 10.00 Fair -- 49.0 24.8 39% 44 NA 29.99 M
12:55 pm EST SW 6.9 10.00 Fair -- 46.0 24.8 43% 42 NA 30.00 M
12:35 pm EST SW 12.7 G 17.3 10.00 Fair -- 46.0 25.9 45% 40 NA 30.02 M
11:55 am EST SW 8.1 10.00 Fair -- 44.0 26.2 51% 39 NA 30.04 M
10:55 am EST SW 18.4 G 23.0 10.00 Fair -- 41.0 25.0 54% 32 NA 30.08 M
10:35 am EST SW 18.4 G 24.2 10.00 Fair -- 41.0 24.6 53% 32 NA 30.08 M
9:55 am EST SW 12.7 G 23.0 10.00 Fair -- 39.0 24.8 56% 31 NA 30.10 M
8:55 am EST S 10.4 G 16.1 10.00 Fair -- 35.0 23.4 64% 27 NA 30.12 M
7:55 am EST SW 8.1 10.00 Fair -- 31.0 23.5 73% 24 NA 30.14 M
6:55 am EST S 8.1 10.00 Overcast -- 31.0 22.6 71% 24 NA 30.12 M
6:35 am EST S 6.9 10.00 Overcast -- 30.0 22.3 72% 23 NA 30.13 M

Regional Weather Observation

Philadelphia, Northeast Philadelphia Airport, PA (KPNE)

Mostly Cloudy
45.0 F

Pottstown, Pottstown Limerick Airport, PA (KPTW)

Overcast
38.0 F

Doylestown, Doylestown Airport, PA (KDYL)

Overcast
43.0 F

Pennridge Airport, PA (KCKZ)

Overcast
37.0 F

Quakertown Airport, PA (KUKT)

Mostly Cloudy
34.0 F

Brandywine Regional Airport, PA (KOQN)

Overcast
43.0 F

Advertise Here


Advertise Here